KE5BM-13 Weather Reports


Display with metric or nautical units.
time (UTC)temp
F
wind
direction
speed
MPH
gust
MPH
rain 1hr
in
rain 24hr
in
rain mn
in
humidity
%
barometer
mb
20260505101425 52 202 5.0 9.0 0.00 0.00 0.00 89 1011.5
20260505100926 52 166 5.0 10.0 0.00 0.00 0.00 89 1011.5
20260505100424 52 153 5.0 13.0 0.00 0.00 0.00 89 1011.5
20260505095924 52 138 5.0 13.0 0.00 0.00 0.00 89 1011.5
20260505095425 52 181 4.0 10.0 0.00 0.00 0.00 89 1011.5
20260505094922 52 138 3.0 10.0 0.00 0.00 0.00 89 1011.5
20260505094422 52 155 4.0 10.0 0.00 0.00 0.00 89 1011.5
20260505093922 52 196 4.0 9.0 0.00 0.00 0.00 89 1011.5
20260505093420 52 160 4.0 9.0 0.00 0.00 0.00 89 1011.4
20260505092920 52 155 3.0 8.0 0.00 0.00 0.00 89 1011.3
20260505092419 52 134 3.0 8.0 0.00 0.00 0.00 89 1011.3
20260505091917 52 164 2.0 7.0 0.00 0.00 0.00 89 1011.4
20260505091418 52 155 3.0 7.0 0.00 0.00 0.00 90 1011.4
20260505090917 51 172 2.0 6.0 0.00 0.00 0.00 90 1011.4
20260505090418 51 175 2.0 5.0 0.00 0.00 0.00 90 1011.3
20260505085918 51 152 2.0 5.0 0.00 0.00 0.00 90 1011.4
20260505085416 51 207 2.0 6.0 0.00 0.00 0.00 90 1011.4
20260505084915 51 149 2.0 6.0 0.00 0.00 0.00 90 1011.4
20260505084412 51 156 2.0 7.0 0.00 0.00 0.00 90 1011.3
20260505083912 51 196 2.0 7.0 0.00 0.00 0.00 91 1011.3
20260505083407 51 171 2.0 5.0 0.00 0.00 0.00 91 1011.4
20260505082904 51 163 2.0 5.0 0.00 0.00 0.00 91 1011.4
20260505082347 51 139 2.0 5.0 0.00 0.00 0.00 91 1011.5
20260505081844 51 177 2.0 5.0 0.00 0.00 0.00 91 1011.5
20260505081344 51 153 2.0 5.0 0.00 0.00 0.00 91 1011.6
20260505080842 51 150 2.0 7.0 0.00 0.00 0.00 91 1011.6
20260505080344 51 173 3.0 7.0 0.00 0.00 0.00 91 1011.7
20260505075834 51 160 3.0 7.0 0.00 0.00 0.00 91 1011.6
20260505075334 51 173 2.0 7.0 0.00 0.00 0.00 91 1011.7
20260505074831 51 225 2.0 6.0 0.00 0.00 0.00 91 1011.7
20260505074335 51 161 2.0 6.0 0.00 0.00 0.00 90 1011.7
20260505073821 52 123 2.0 5.0 0.00 0.00 0.00 90 1011.6
20260505073325 52 161 2.0 5.0 0.00 0.00 0.00 90 1011.7
20260505072819 52 194 2.0 6.0 0.00 0.00 0.00 90 1011.7
20260505072318 52 153 3.0 7.0 0.00 0.00 0.00 90 1011.6
20260505071818 52 154 3.0 7.0 0.00 0.00 0.00 90 1011.7
20260505071317 52 169 3.0 6.0 0.00 0.00 0.00 90 1011.6
20260505070815 52 191 3.0 7.0 0.00 0.00 0.00 89 1011.6
20260505070316 52 130 3.0 12.0 0.00 0.00 0.00 89 1011.6
20260505065815 52 171 3.0 12.0 0.00 0.00 0.00 90 1011.7
20260505065315 52 209 3.0 8.0 0.00 0.00 0.00 90 1011.6
20260505064810 52 168 3.0 10.0 0.00 0.00 0.00 90 1011.5
20260505064311 52 203 2.0 10.0 0.00 0.00 0.00 90 1011.5
20260505063804 52 250 2.0 8.0 0.00 0.00 0.00 90 1011.4
20260505063305 52 201 2.0 8.0 0.00 0.00 0.00 90 1011.4
20260505062804 52 194 2.0 8.0 0.00 0.00 0.00 90 1011.4
20260505062304 52 154 3.0 8.0 0.00 0.00 0.00 90 1011.5
20260505061805 52 197 2.0 7.0 0.00 0.00 0.00 90 1011.5
20260505061304 52 167 2.0 8.0 0.00 0.00 0.00 89 1011.5
20260505060804 52 186 2.0 8.0 0.00 0.00 0.00 89 1011.4
20260505060304 52 239 2.0 5.0 0.00 0.00 0.00 89 1011.5
20260505055803 52 225 2.0 6.0 0.00 0.00 0.00 89 1011.5
20260505055303 52 185 3.0 7.0 0.00 0.00 0.00 89 1011.5
20260505054802 52 169 3.0 8.0 0.00 0.00 0.00 89 1011.6
20260505054257 52 156 3.0 8.0 0.00 0.00 0.00 88 1011.5
20260505053759 52 177 3.0 7.0 0.00 0.00 0.00 88 1011.6
20260505053257 52 191 3.0 8.0 0.00 0.00 0.00 88 1011.6
20260505052756 52 148 3.0 8.0 0.00 0.00 0.00 88 1011.6
20260505052256 52 206 3.0 8.0 0.00 0.00 0.00 88 1011.6
20260505051753 52 137 3.0 8.0 0.00 0.00 0.00 88 1011.6
20260505051253 52 180 3.0 8.0 0.00 0.00 0.00 87 1011.6
20260505050753 52 211 2.0 9.0 0.00 0.00 0.00 87 1011.5
20260505050252 52 171 3.0 9.0 0.00 0.00 0.00 87 1011.6
20260505041750 52 164 4.0 9.0 0.00 0.00 0.00 86 1011.9
20260505041250 52 184 4.0 10.0 0.00 0.00 0.00 85 1011.9
20260505040751 52 165 4.0 10.0 0.00 0.00 0.00 85 1012.0
20260505040250 52 169 4.0 9.0 0.00 0.00 0.00 85 1012.0
20260505035748 52 216 4.0 9.0 0.00 0.00 0.00 85 1012.0
20260505035247 52 162 4.0 10.0 0.00 0.00 0.00 84 1012.1
20260505034749 52 213 4.0 11.0 0.00 0.00 0.00 84 1012.1
20260505034246 52 161 4.0 11.0 0.00 0.00 0.00 84 1012.1
20260505033745 52 153 3.0 8.0 0.00 0.00 0.00 84 1012.1
20260505033245 52 163 3.0 7.0 0.00 0.00 0.00 84 1012.1
20260505032747 53 227 4.0 9.0 0.00 0.00 0.00 84 1012.0
20260505032245 53 182 4.0 11.0 0.00 0.00 0.00 83 1011.9
20260505031742 53 186 4.0 11.0 0.00 0.00 0.00 83 1011.9
20260505031241 53 198 5.0 12.0 0.00 0.00 0.00 83 1012.0
20260505030742 53 255 4.0 15.0 0.00 0.00 0.00 83 1012.0
20260505030240 53 170 4.0 15.0 0.00 0.00 0.00 83 1012.0
20260505025746 53 122 4.0 11.0 0.00 0.00 0.00 82 1012.0
20260505025239 53 174 5.0 11.0 0.00 0.00 0.00 82 1011.9
20260505024741 53 243 4.0 14.0 0.00 0.00 0.00 82 1012.1
20260505024238 53 275 4.0 15.0 0.00 0.00 0.00 82 1012.1
20260505023738 53 202 5.0 17.0 0.00 0.00 0.00 81 1012.1
20260505023236 53 220 4.0 17.0 0.00 0.00 0.00 81 1012.0
20260505022736 53 148 4.0 13.0 0.00 0.00 0.00 81 1012.1
20260505022237 53 151 5.0 14.0 0.00 0.00 0.00 80 1012.0
20260505021735 53 215 5.0 14.0 0.00 0.00 0.00 80 1012.0
20260505021233 53 140 5.0 14.0 0.00 0.00 0.00 80 1012.0
20260505020735 53 204 5.0 14.0 0.00 0.00 0.00 80 1012.0
20260505020235 53 166 5.0 14.0 0.00 0.00 0.00 80 1011.8
20260505015731 53 161 5.0 13.0 0.00 0.00 0.00 80 1011.8
20260505015234 54 204 5.0 19.0 0.00 0.00 0.00 80 1011.8
20260505014731 54 184 5.0 19.0 0.00 0.00 0.00 80 1011.8
20260505014231 54 178 6.0 15.0 0.00 0.00 0.00 79 1011.7
20260505013731 54 155 6.0 16.0 0.00 0.00 0.00 79 1011.8
20260505013229 54 205 5.0 16.0 0.00 0.00 0.00 79 1011.6
20260505012729 54 119 6.0 15.0 0.00 0.00 0.00 78 1011.5
20260505012228 54 159 6.0 19.0 0.00 0.00 0.00 78 1011.2
20260505011727 54 144 6.0 19.0 0.00 0.00 0.00 77 1011.4
20260505011227 54 189 5.0 12.0 0.00 0.00 0.00 77 1011.1
20260505010726 54 242 6.0 13.0 0.00 0.00 0.00 77 1011.2
20260505010225 54 155 6.0 13.0 0.00 0.00 0.00 77 1011.1
20260505005725 54 79 6.0 15.0 0.00 0.00 0.00 77 1011.1
20260505005225 54 137 5.0 15.0 0.00 0.00 0.00 77 1011.1
20260505004723 54 275 5.0 13.0 0.00 0.00 0.00 77 1011.0
20260505004221 54 161 6.0 22.0 0.00 0.00 0.00 76 1011.0
20260505003722 54 213 5.0 22.0 0.00 0.00 0.00 76 1011.0
20260505003224 54 232 5.0 17.0 0.00 0.00 0.00 75 1010.8
20260505002721 54 152 5.0 17.0 0.00 0.00 0.00 75 1010.6
20260505002220 54 207 5.0 13.0 0.00 0.00 0.00 74 1010.6
20260505001722 54 256 6.0 13.0 0.00 0.00 0.00 74 1010.5
20260505001219 54 156 5.0 14.0 0.00 0.00 0.00 73 1010.5
20260505000717 54 132 5.0 14.0 0.00 0.00 0.00 72 1010.3
20260505000218 54 168 5.0 14.0 0.00 0.00 0.00 71 1010.4
20260504235717 54 225 5.0 14.0 0.00 0.00 0.00 71 1010.3
20260504235218 54 210 6.0 14.0 0.00 0.00 0.00 71 1010.3
20260504234715 55 197 6.0 19.0 0.00 0.00 0.00 70 1010.2
20260504234214 55 180 6.0 19.0 0.00 0.00 0.00 70 1010.3
20260504233715 55 204 5.0 13.0 0.00 0.00 0.00 69 1010.3
20260504233216 55 193 5.0 13.0 0.00 0.00 0.00 69 1010.2
20260504232715 55 260 5.0 13.0 0.00 0.00 0.00 69 1010.2
20260504232212 55 145 5.0 13.0 0.00 0.00 0.00 70 1010.1
20260504231712 55 153 4.0 13.0 0.00 0.00 0.00 70 1010.0
20260504231212 55 205 5.0 14.0 0.00 0.00 0.00 70 1010.0
20260504230711 55 213 5.0 15.0 0.00 0.00 0.00 69 1009.9
20260504230207 55 177 5.0 17.0 0.00 0.00 0.00 69 1009.8
20260504225708 56 185 5.0 17.0 0.00 0.00 0.00 68 1009.9
20260504225209 56 173 6.0 12.0 0.00 0.00 0.00 67 1009.8
20260504224710 56 172 6.0 12.0 0.00 0.00 0.00 66 1009.7
20260504224208 56 160 6.0 13.0 0.00 0.00 0.00 65 1009.7
20260504223708 57 192 6.0 13.0 0.00 0.00 0.00 65 1009.8
20260504223205 57 247 6.0 13.0 0.00 0.00 0.00 65 1009.8
20260504222707 57 5 6.0 13.0 0.00 0.00 0.00 64 1009.8
20260504222206 57 171 6.0 18.0 0.00 0.00 0.00 64 1009.7
20260504221703 57 196 7.0 18.0 0.00 0.00 0.00 63 1009.8
20260504221205 57 254 7.0 18.0 0.00 0.00 0.00 64 1009.7
20260504220702 57 74 7.0 14.0 0.00 0.00 0.00 63 1009.7
20260504220202 58 178 7.0 17.0 0.00 0.00 0.00 63 1009.8
20260504215645 58 157 7.0 17.0 0.00 0.00 0.00 62 1009.8
20260504215142 58 202 6.0 18.0 0.00 0.00 0.00 62 1010.0
20260504214643 58 165 6.0 18.0 0.00 0.00 0.00 62 1009.9
20260504214141 58 162 6.0 18.0 0.00 0.00 0.00 62 1009.9
20260504213641 59 157 5.0 16.0 0.00 0.00 0.00 61 1009.9
20260504213140 59 173 6.0 16.0 0.00 0.00 0.00 61 1009.9
20260504212640 59 242 6.0 18.0 0.00 0.00 0.00 61 1009.9
20260504212139 59 161 6.0 18.0 0.00 0.00 0.00 61 1010.0
20260504211638 59 187 6.0 18.0 0.00 0.00 0.00 62 1010.0
20260504211138 59 182 6.0 18.0 0.00 0.00 0.00 61 1009.9
20260504210637 59 147 6.0 16.0 0.00 0.00 0.00 62 1009.8
20260504210138 60 165 7.0 16.0 0.00 0.00 0.00 61 1009.6
20260504205638 60 194 7.0 16.0 0.00 0.00 0.00 61 1009.6
20260504205136 60 169 7.0 15.0 0.00 0.00 0.00 60 1009.5
20260504204635 60 161 6.0 15.0 0.00 0.00 0.00 57 1009.5
20260504204134 61 177 6.0 12.0 0.00 0.00 0.00 54 1009.3
20260504203634 62 182 6.0 15.0 0.00 0.00 0.00 54 1009.4
20260504203134 61 170 6.0 15.0 0.00 0.00 0.00 54 1009.4
20260504202632 61 244 6.0 17.0 0.00 0.00 0.00 55 1009.2
20260504202132 61 94 6.0 17.0 0.00 0.00 0.00 56 1009.4
20260504201631 61 172 6.0 22.0 0.00 0.00 0.00 57 1009.3
20260504201131 61 213 7.0 22.0 0.00 0.00 0.00 56 1009.3
20260504200630 62 229 6.0 18.0 0.00 0.00 0.00 55 1009.3
20260504200129 62 184 7.0 18.0 0.00 0.00 0.00 54 1009.4
20260504195628 62 270 8.0 17.0 0.00 0.00 0.00 51 1009.3
20260504195129 62 219 8.0 17.0 0.00 0.00 0.00 50 1009.4
20260504194628 63 188 7.0 16.0 0.00 0.00 0.00 48 1009.2
20260504194126 64 275 5.0 14.0 0.00 0.00 0.00 50 1009.2
20260504193626 64 182 5.0 15.0 0.00 0.00 0.00 44 1009.3
20260504193125 64 298 6.0 15.0 0.00 0.00 0.00 45 1009.3
20260504192625 63 223 8.0 20.0 0.00 0.00 0.00 45 1009.6
20260504192125 63 227 9.0 20.0 0.00 0.00 0.00 44 1009.6
20260504191624 63 197 8.0 24.0 0.00 0.00 0.00 44 1009.6
20260504191122 63 285 9.0 24.0 0.00 0.00 0.00 44 1009.6
20260504190624 63 248 9.0 22.0 0.00 0.00 0.00 45 1009.7
20260504190123 63 138 7.0 22.0 0.00 0.00 0.00 45 1009.7
20260504185622 64 146 6.0 18.0 0.00 0.00 0.00 48 1009.8
20260504185121 64 318 5.0 13.0 0.00 0.00 0.00 48 1009.7
20260504184620 64 239 4.0 13.0 0.00 0.00 0.00 49 1009.7
20260504184120 64 210 6.0 21.0 0.00 0.00 0.00 51 1009.6
20260504183619 63 221 8.0 21.0 0.00 0.00 0.00 46 1009.5
20260504183117 63 262 7.0 18.0 0.00 0.00 0.00 46 1009.7
20260504182618 63 316 7.0 21.0 0.00 0.00 0.00 45 1009.5
20260504182115 63 192 7.0 21.0 0.00 0.00 0.00 47 1009.3
20260504181616 63 223 7.0 18.0 0.00 0.00 0.00 46 1009.4
20260504181115 63 304 7.0 17.0 0.00 0.00 0.00 48 1009.5
20260504180615 63 240 7.0 17.0 0.00 0.00 0.00 46 1009.3
20260504180114 63 235 6.0 16.0 0.00 0.00 0.00 49 1009.4
20260504175614 63 234 7.0 17.0 0.00 0.00 0.00 47 1009.4
20260504175114 63 246 8.0 17.0 0.00 0.00 0.00 48 1009.6
20260504174613 62 202 8.0 22.0 0.00 0.00 0.00 47 1009.7
20260504174110 62 237 8.0 22.0 0.00 0.00 0.00 45 1010.0
20260504173609 63 153 8.0 21.0 0.00 0.00 0.00 46 1009.7
20260504173111 63 173 7.0 21.0 0.00 0.00 0.00 46 1009.6
20260504172609 63 210 7.0 22.0 0.00 0.00 0.00 50 1009.5
20260504172109 64 223 6.0 22.0 0.00 0.00 0.00 46 1009.7
20260504171608 64 212 6.0 23.0 0.00 0.00 0.00 50 1009.5
20260504171106 64 240 6.0 25.0 0.00 0.00 0.00 48 1009.5
20260504170605 64 246 7.0 25.0 0.00 0.00 0.00 47 1009.6
20260504170105 63 157 7.0 20.0 0.00 0.00 0.00 47 1009.7
20260504151053 60 198 4.0 9.0 0.00 0.08 0.00 63 1010.5
20260504150553 60 159 4.0 9.0 0.00 0.08 0.00 64 1010.5
20260504141047 62 183 4.0 11.0 0.00 0.10 0.00 51 1010.6
20260504140548 62 213 4.0 13.0 0.00 0.10 0.00 52 1010.6
20260504130519 59 274 4.0 12.0 0.00 0.10 0.00 57 1010.8
20260504110456 51 322 2.0 7.0 0.00 0.11 0.00 77 1011.1